Wetterdaten: aktuell Sonntag, 23.06.2024 05:39
Datum Zeit Temp. A. Feuchte A. Luftdruck Regen Wind Richtung Richtung Sonnenschein UV Solar Taupunkt Windchill Windben
23.06.2024 05:39 15,2 C 91 % 1019,5 hPa 0,0 l/m 0,0 km/h (0 Bft) S 185 0 min 0,0 UV-I 9 W/m 13,7 C 15,2 C 0,0 km/h (0 Bft)
23.06.2024 05:37 15,2 C 91 % 1019,3 hPa 0,0 l/m 0,0 km/h (0 Bft) S 185 0 min 0,0 UV-I 8 W/m 13,7 C 15,2 C 0,0 km/h (0 Bft)
23.06.2024 05:35 15,2 C 91 % 1019,4 hPa 0,0 l/m 0,0 km/h (0 Bft) S 185 0 min 0,0 UV-I 8 W/m 13,7 C 15,2 C 0,0 km/h (0 Bft)
23.06.2024 05:33 15,2 C 91 % 1019,5 hPa 0,0 l/m 0,0 km/h (0 Bft) S 184 0 min 0,0 UV-I 8 W/m 13,7 C 15,2 C 0,0 km/h (0 Bft)
23.06.2024 05:31 15,2 C 91 % 1019,2 hPa 0,0 l/m 0,0 km/h (0 Bft) S 184 0 min 0,0 UV-I 8 W/m 13,7 C 15,2 C 1,8 km/h (1 Bft)
23.06.2024 05:29 15,2 C 91 % 1019,4 hPa 0,0 l/m 0,0 km/h (0 Bft) S 185 0 min 0,0 UV-I 7 W/m 13,7 C 15,2 C 0,0 km/h (0 Bft)
23.06.2024 05:27 15,2 C 91 % 1019,2 hPa 0,0 l/m 0,0 km/h (0 Bft) S 185 0 min 0,0 UV-I 6 W/m 13,7 C 15,2 C 0,0 km/h (0 Bft)
23.06.2024 05:25 15,2 C 91 % 1019,4 hPa 0,0 l/m 0,0 km/h (0 Bft) S 185 0 min 0,0 UV-I 6 W/m 13,7 C 15,2 C 0,0 km/h (0 Bft)
23.06.2024 05:23 15,2 C 91 % 1019,2 hPa 0,0 l/m 0,3 km/h (0 Bft) S 185 0 min 0,0 UV-I 6 W/m 13,7 C 15,2 C 1,8 km/h (1 Bft)
23.06.2024 05:21 15,2 C 91 % 1019,2 hPa 0,0 l/m 0,0 km/h (0 Bft) S 185 0 min 0,0 UV-I 5 W/m 13,7 C 15,2 C 0,0 km/h (0 Bft)
23.06.2024 05:19 15,2 C 91 % 1019,1 hPa 0,0 l/m 0,0 km/h (0 Bft) S 185 0 min 0,0 UV-I 4 W/m 13,7 C 15,2 C 0,0 km/h (0 Bft)
23.06.2024 05:17 15,2 C 91 % 1019,2 hPa 0,0 l/m 0,0 km/h (0 Bft) S 185 0 min 0,0 UV-I 3 W/m 13,7 C 15,2 C 0,0 km/h (0 Bft)
23.06.2024 05:15 15,2 C 91 % 1019,2 hPa 0,0 l/m 0,0 km/h (0 Bft) S 185 0 min 0,0 UV-I 3 W/m 13,7 C 15,2 C 0,0 km/h (0 Bft)
23.06.2024 05:13 15,2 C 91 % 1019,2 hPa 0,0 l/m 0,0 km/h (0 Bft) S 185 0 min 0,0 UV-I 3 W/m 13,7 C 15,2 C 0,0 km/h (0 Bft)
23.06.2024 05:11 15,2 C 91 % 1019,3 hPa 0,0 l/m 1,8 km/h (1 Bft) S 186 0 min 0,0 UV-I 2 W/m 13,7 C 15,2 C 3,6 km/h (1 Bft)
23.06.2024 05:09 15,2 C 91 % 1019,1 hPa 0,0 l/m 0,0 km/h (0 Bft) S 171 0 min 0,0 UV-I 2 W/m 13,7 C 15,2 C 1,8 km/h (1 Bft)
23.06.2024 05:07 15,2 C 91 % 1019,3 hPa 0,0 l/m 0,0 km/h (0 Bft) S 184 0 min 0,0 UV-I 2 W/m 13,7 C 15,2 C 3,6 km/h (1 Bft)
23.06.2024 05:05 15,2 C 91 % 1019,2 hPa 0,0 l/m 2,2 km/h (1 Bft) SW 225 0 min 0,0 UV-I 2 W/m 13,7 C 15,2 C 3,6 km/h (1 Bft)
23.06.2024 05:03 15,3 C 91 % 1019,3 hPa 0,0 l/m 0,3 km/h (0 Bft) SW 225 0 min 0,0 UV-I 1 W/m 13,8 C 15,3 C 1,8 km/h (1 Bft)
23.06.2024 05:01 15,3 C 91 % 1019,3 hPa 0,0 l/m 0,0 km/h (0 Bft) SW 225 0 min 0,0 UV-I 1 W/m 13,8 C 15,3 C 1,8 km/h (1 Bft)
23.06.2024 04:59 15,3 C 91 % 1019,3 hPa 0,0 l/m 0,0 km/h (0 Bft) SW 225 0 min 0,0 UV-I 1 W/m 13,8 C 15,3 C 3,6 km/h (1 Bft)
23.06.2024 04:56 15,2 C 91 % 1019,3 hPa 0,0 l/m 0,3 km/h (0 Bft) S-SW 211 0 min 0,0 UV-I 1 W/m 13,7 C 15,2 C 5,4 km/h (1 Bft)
23.06.2024 04:54 15,2 C 91 % 1019,1 hPa 0,0 l/m 0,0 km/h (0 Bft) S-SW 200 0 min 0,0 UV-I 1 W/m 13,7 C 15,2 C 1,8 km/h (1 Bft)
23.06.2024 04:52 15,2 C 91 % 1019,3 hPa 0,0 l/m 0,3 km/h (0 Bft) S-SW 200 0 min 0,0 UV-I 0 W/m 13,7 C 15,2 C 1,8 km/h (1 Bft)
23.06.2024 04:50 15,3 C 91 % 1019,2 hPa 0,0 l/m 0,0 km/h (0 Bft) S-SW 199 0 min 0,0 UV-I 0 W/m 13,8 C 15,3 C 1,8 km/h (1 Bft)
23.06.2024 04:48 15,2 C 91 % 1019,1 hPa 0,0 l/m 0,0 km/h (0 Bft) S 177 0 min 0,0 UV-I 0 W/m 13,7 C 15,2 C 1,8 km/h (1 Bft)
23.06.2024 04:46 15,3 C 91 % 1019,1 hPa 0,0 l/m 0,0 km/h (0 Bft) S 169 0 min 0,0 UV-I 0 W/m 13,8 C 15,3 C 0,0 km/h (0 Bft)
23.06.2024 04:44 15,3 C 91 % 1019,0 hPa 0,0 l/m 0,0 km/h (0 Bft) S-SO 168 0 min 0,0 UV-I 0 W/m 13,8 C 15,3 C 0,0 km/h (0 Bft)
23.06.2024 04:42 15,3 C 91 % 1019,1 hPa 0,0 l/m 0,0 km/h (0 Bft) S-SO 168 0 min 0,0 UV-I 0 W/m 13,8 C 15,3 C 0,0 km/h (0 Bft)
23.06.2024 04:40 15,3 C 91 % 1019,1 hPa 0,0 l/m 0,0 km/h (0 Bft) S 169 0 min 0,0 UV-I 0 W/m 13,8 C 15,3 C 0,0 km/h (0 Bft)
23.06.2024 04:38 15,4 C 91 % 1019,2 hPa 0,0 l/m 0,0 km/h (0 Bft) S 169 0 min 0,0 UV-I 0 W/m 13,9 C 15,4 C 0,0 km/h (0 Bft)
23.06.2024 04:36 15,4 C 91 % 1019,2 hPa 0,0 l/m 0,0 km/h (0 Bft) S-SO 168 0 min 0,0 UV-I 0 W/m 13,9 C 15,4 C 0,0 km/h (0 Bft)
23.06.2024 04:34 15,4 C 91 % 1019,1 hPa 0,0 l/m 0,0 km/h (0 Bft) S-SO 168 0 min 0,0 UV-I 0 W/m 13,9 C 15,4 C 0,0 km/h (0 Bft)
23.06.2024 04:32 15,4 C 91 % 1019,2 hPa 0,0 l/m 0,0 km/h (0 Bft) S-SO 168 0 min 0,0 UV-I 0 W/m 13,9 C 15,4 C 0,0 km/h (0 Bft)
23.06.2024 04:30 15,4 C 91 % 1019,2 hPa 0,0 l/m 0,0 km/h (0 Bft) S-SO 168 0 min 0,0 UV-I 0 W/m 13,9 C 15,4 C 0,0 km/h (0 Bft)
23.06.2024 04:28 15,4 C 91 % 1019,2 hPa 0,0 l/m 0,0 km/h (0 Bft) S-SO 168 0 min 0,0 UV-I 0 W/m 13,9 C 15,4 C 0,0 km/h (0 Bft)
23.06.2024 04:26 15,4 C 91 % 1018,9 hPa 0,0 l/m 0,0 km/h (0 Bft) S-SO 168 0 min 0,0 UV-I 0 W/m 13,9 C 15,4 C 0,0 km/h (0 Bft)
23.06.2024 04:24 15,5 C 91 % 1019,0 hPa 0,0 l/m 0,0 km/h (0 Bft) S-SO 168 0 min 0,0 UV-I 0 W/m 14,0 C 15,5 C 0,0 km/h (0 Bft)
23.06.2024 04:22 15,5 C 91 % 1018,9 hPa 0,0 l/m 0,0 km/h (0 Bft) S-SO 168 0 min 0,0 UV-I 0 W/m 14,0 C 15,5 C 0,0 km/h (0 Bft)
23.06.2024 04:20 15,4 C 91 % 1019,1 hPa 0,0 l/m 0,0 km/h (0 Bft) S-SO 168 0 min 0,0 UV-I 0 W/m 13,9 C 15,4 C 0,0 km/h (0 Bft)
23.06.2024 04:18 15,4 C 91 % 1019,1 hPa 0,0 l/m 0,0 km/h (0 Bft) S-SO 168 0 min 0,0 UV-I 0 W/m 13,9 C 15,4 C 0,0 km/h (0 Bft)
23.06.2024 04:16 15,4 C 91 % 1019,1 hPa 0,0 l/m 0,0 km/h (0 Bft) S-SO 168 0 min 0,0 UV-I 0 W/m 13,9 C 15,4 C 0,0 km/h (0 Bft)
23.06.2024 04:14 15,4 C 91 % 1019,2 hPa 0,0 l/m 0,0 km/h (0 Bft) S-SO 168 0 min 0,0 UV-I 0 W/m 13,9 C 15,4 C 0,0 km/h (0 Bft)
23.06.2024 04:12 15,4 C 91 % 1018,9 hPa 0,0 l/m 0,0 km/h (0 Bft) S-SO 168 0 min 0,0 UV-I 0 W/m 13,9 C 15,4 C 0,0 km/h (0 Bft)
23.06.2024 04:10 15,4 C 91 % 1019,0 hPa 0,0 l/m 0,0 km/h (0 Bft) S-SO 168 0 min 0,0 UV-I 0 W/m 13,9 C 15,4 C 0,0 km/h (0 Bft)
23.06.2024 04:08 15,4 C 91 % 1019,1 hPa 0,0 l/m 0,0 km/h (0 Bft) S-SO 168 0 min 0,0 UV-I 0 W/m 13,9 C 15,4 C 0,0 km/h (0 Bft)
23.06.2024 04:06 15,4 C 91 % 1018,9 hPa 0,0 l/m 0,0 km/h (0 Bft) S-SO 168 0 min 0,0 UV-I 0 W/m 13,9 C 15,4 C 0,0 km/h (0 Bft)
23.06.2024 04:04 15,4 C 91 % 1019,0 hPa 0,0 l/m 0,0 km/h (0 Bft) S 169 0 min 0,0 UV-I 0 W/m 13,9 C 15,4 C 0,0 km/h (0 Bft)
23.06.2024 04:02 15,5 C 91 % 1019,0 hPa 0,0 l/m 0,0 km/h (0 Bft) S 169 0 min 0,0 UV-I 0 W/m 14,0 C 15,5 C 0,0 km/h (0 Bft)
23.06.2024 04:00 15,5 C 91 % 1018,9 hPa 0,0 l/m 0,0 km/h (0 Bft) S 169 0 min 0,0 UV-I 0 W/m 14,0 C 15,5 C 0,0 km/h (0 Bft)
23.06.2024 03:58 15,5 C 91 % 1018,8 hPa 0,0 l/m 0,0 km/h (0 Bft) S 169 0 min 0,0 UV-I 0 W/m 14,0 C 15,5 C 0,0 km/h (0 Bft)
23.06.2024 03:56 15,5 C 90 % 1019,0 hPa 0,0 l/m 0,0 km/h (0 Bft) S 169 0 min 0,0 UV-I 0 W/m 13,9 C 15,5 C 0,0 km/h (0 Bft)
23.06.2024 03:54 15,5 C 90 % 1019,0 hPa 0,0 l/m 0,0 km/h (0 Bft) S 169 0 min 0,0 UV-I 0 W/m 13,9 C 15,5 C 0,0 km/h (0 Bft)
23.06.2024 03:52 15,5 C 90 % 1019,0 hPa 0,0 l/m 0,0 km/h (0 Bft) S 169 0 min 0,0 UV-I 0 W/m 13,9 C 15,5 C 0,0 km/h (0 Bft)
23.06.2024 03:50 15,5 C 90 % 1018,9 hPa 0,0 l/m 0,0 km/h (0 Bft) S 169 0 min 0,0 UV-I 0 W/m 13,9 C 15,5 C 0,0 km/h (0 Bft)
23.06.2024 03:48 15,6 C 90 % 1018,9 hPa 0,0 l/m 0,0 km/h (0 Bft) S 169 0 min 0,0 UV-I 0 W/m 14,0 C 15,6 C 0,0 km/h (0 Bft)
23.06.2024 03:46 15,6 C 90 % 1018,8 hPa 0,0 l/m 0,0 km/h (0 Bft) S 169 0 min 0,0 UV-I 0 W/m 14,0 C 15,6 C 0,0 km/h (0 Bft)
23.06.2024 03:44 15,6 C 90 % 1018,8 hPa 0,0 l/m 0,0 km/h (0 Bft) S 169 0 min 0,0 UV-I 0 W/m 14,0 C 15,6 C 1,8 km/h (1 Bft)
23.06.2024 03:42 15,7 C 90 % 1018,9 hPa 0,0 l/m 0,3 km/h (0 Bft) S-SO 168 0 min 0,0 UV-I 0 W/m 14,1 C 15,7 C 1,8 km/h (1 Bft)
23.06.2024 03:40 15,7 C 90 % 1018,9 hPa 0,0 l/m 0,0 km/h (0 Bft) S-SO 164 0 min 0,0 UV-I 0 W/m 14,1 C 15,7 C 1,8 km/h (1 Bft)
23.06.2024 03:38 15,6 C 90 % 1018,9 hPa 0,0 l/m 0,0 km/h (0 Bft) S-SO 164 0 min 0,0 UV-I 0 W/m 14,0 C 15,6 C 0,0 km/h (0 Bft)
23.06.2024 03:36 15,6 C 90 % 1019,0 hPa 0,0 l/m 0,0 km/h (0 Bft) S-SO 164 0 min 0,0 UV-I 0 W/m 14,0 C 15,6 C 1,8 km/h (1 Bft)
23.06.2024 03:34 15,6 C 90 % 1018,7 hPa 0,0 l/m 0,0 km/h (0 Bft) S-SO 164 0 min 0,0 UV-I 0 W/m 14,0 C 15,6 C 0,0 km/h (0 Bft)
23.06.2024 03:32 15,6 C 90 % 1018,9 hPa 0,0 l/m 0,0 km/h (0 Bft) S-SO 161 0 min 0,0 UV-I 0 W/m 14,0 C 15,6 C 1,8 km/h (1 Bft)
23.06.2024 03:30 15,6 C 90 % 1018,8 hPa 0,0 l/m 0,0 km/h (0 Bft) S-SO 161 0 min 0,0 UV-I 0 W/m 14,0 C 15,6 C 0,0 km/h (0 Bft)
23.06.2024 03:28 15,6 C 90 % 1018,7 hPa 0,0 l/m 0,0 km/h (0 Bft) SO 145 0 min 0,0 UV-I 0 W/m 14,0 C 15,6 C 0,0 km/h (0 Bft)
23.06.2024 03:26 15,6 C 90 % 1018,8 hPa 0,0 l/m 0,0 km/h (0 Bft) SO 144 0 min 0,0 UV-I 0 W/m 14,0 C 15,6 C 0,0 km/h (0 Bft)
23.06.2024 03:24 15,7 C 90 % 1019,0 hPa 0,0 l/m 0,0 km/h (0 Bft) SO 144 0 min 0,0 UV-I 0 W/m 14,1 C 15,7 C 0,0 km/h (0 Bft)
23.06.2024 03:22 15,7 C 90 % 1018,9 hPa 0,0 l/m 0,0 km/h (0 Bft) SO 144 0 min 0,0 UV-I 0 W/m 14,1 C 15,7 C 0,0 km/h (0 Bft)
23.06.2024 03:20 15,7 C 89 % 1018,8 hPa 0,0 l/m 0,0 km/h (0 Bft) SO 144 0 min 0,0 UV-I 0 W/m 13,9 C 15,7 C 0,0 km/h (0 Bft)
23.06.2024 03:18 15,7 C 89 % 1019,0 hPa 0,0 l/m 0,0 km/h (0 Bft) SO 144 0 min 0,0 UV-I 0 W/m 13,9 C 15,7 C 0,0 km/h (0 Bft)
23.06.2024 03:16 15,7 C 90 % 1018,9 hPa 0,0 l/m 0,0 km/h (0 Bft) SO 144 0 min 0,0 UV-I 0 W/m 14,1 C 15,7 C 0,0 km/h (0 Bft)
23.06.2024 03:14 15,7 C 89 % 1019,1 hPa 0,0 l/m 0,0 km/h (0 Bft) SO 144 0 min 0,0 UV-I 0 W/m 13,9 C 15,7 C 0,0 km/h (0 Bft)
23.06.2024 03:12 15,7 C 89 % 1018,9 hPa 0,0 l/m 0,0 km/h (0 Bft) O-SO 123 0 min 0,0 UV-I 0 W/m 13,9 C 15,7 C 1,8 km/h (1 Bft)
23.06.2024 03:10 15,7 C 89 % 1018,7 hPa 0,0 l/m 0,0 km/h (0 Bft) O 88 0 min 0,0 UV-I 0 W/m 13,9 C 15,7 C 0,0 km/h (0 Bft)
23.06.2024 03:08 15,7 C 89 % 1019,0 hPa 0,0 l/m 0,0 km/h (0 Bft) O 88 0 min 0,0 UV-I 0 W/m 13,9 C 15,7 C 0,0 km/h (0 Bft)
23.06.2024 03:06 15,7 C 89 % 1019,0 hPa 0,0 l/m 0,0 km/h (0 Bft) O 88 0 min 0,0 UV-I 0 W/m 13,9 C 15,7 C 0,0 km/h (0 Bft)
23.06.2024 03:04 15,7 C 89 % 1019,1 hPa 0,0 l/m 0,0 km/h (0 Bft) O 88 0 min 0,0 UV-I 0 W/m 13,9 C 15,7 C 0,0 km/h (0 Bft)
23.06.2024 03:02 15,7 C 89 % 1018,8 hPa 0,0 l/m 0,3 km/h (0 Bft) O 88 0 min 0,0 UV-I 0 W/m 13,9 C 15,7 C 1,8 km/h (1 Bft)
23.06.2024 03:00 15,7 C 89 % 1019,1 hPa 0,0 l/m 0,3 km/h (0 Bft) S-SO 152 0 min 0,0 UV-I 0 W/m 13,9 C 15,7 C 1,8 km/h (1 Bft)
23.06.2024 02:58 15,7 C 89 % 1019,1 hPa 0,0 l/m 0,0 km/h (0 Bft) S 184 0 min 0,0 UV-I 0 W/m 13,9 C 15,7 C 0,0 km/h (0 Bft)
23.06.2024 02:55 15,7 C 89 % 1018,8 hPa 0,0 l/m 0,0 km/h (0 Bft) S 184 0 min 0,0 UV-I 0 W/m 13,9 C 15,7 C 0,0 km/h (0 Bft)
23.06.2024 02:53 15,7 C 89 % 1019,0 hPa 0,0 l/m 0,0 km/h (0 Bft) S 185 0 min 0,0 UV-I 0 W/m 13,9 C 15,7 C 3,6 km/h (1 Bft)
23.06.2024 02:51 15,7 C 89 % 1019,2 hPa 0,0 l/m 0,0 km/h (0 Bft) S 184 0 min 0,0 UV-I 0 W/m 13,9 C 15,7 C 0,0 km/h (0 Bft)
23.06.2024 02:49 15,7 C 89 % 1018,9 hPa 0,0 l/m 0,0 km/h (0 Bft) S 184 0 min 0,0 UV-I 0 W/m 13,9 C 15,7 C 0,0 km/h (0 Bft)
23.06.2024 02:47 15,7 C 89 % 1018,9 hPa 0,0 l/m 0,0 km/h (0 Bft) S 184 0 min 0,0 UV-I 0 W/m 13,9 C 15,7 C 1,8 km/h (1 Bft)
23.06.2024 02:45 15,7 C 89 % 1018,9 hPa 0,0 l/m 0,7 km/h (0 Bft) S 188 0 min 0,0 UV-I 0 W/m 13,9 C 15,7 C 3,6 km/h (1 Bft)
23.06.2024 02:43 15,7 C 89 % 1019,1 hPa 0,0 l/m 0,0 km/h (0 Bft) S-SW 204 0 min 0,0 UV-I 0 W/m 13,9 C 15,7 C 1,8 km/h (1 Bft)
23.06.2024 02:41 15,8 C 89 % 1019,1 hPa 0,0 l/m 1,1 km/h (1 Bft) S-SW 205 0 min 0,0 UV-I 0 W/m 14,0 C 15,8 C 1,8 km/h (1 Bft)
23.06.2024 02:39 15,8 C 89 % 1019,0 hPa 0,0 l/m 1,8 km/h (1 Bft) SO 144 0 min 0,0 UV-I 0 W/m 14,0 C 15,8 C 3,6 km/h (1 Bft)
23.06.2024 02:37 15,8 C 89 % 1019,0 hPa 0,0 l/m 0,3 km/h (0 Bft) S 178 0 min 0,0 UV-I 0 W/m 14,0 C 15,8 C 1,8 km/h (1 Bft)
23.06.2024 02:35 15,8 C 89 % 1019,0 hPa 0,0 l/m 1,1 km/h (1 Bft) S 178 0 min 0,0 UV-I 0 W/m 14,0 C 15,8 C 3,6 km/h (1 Bft)
23.06.2024 02:33 15,8 C 89 % 1019,0 hPa 0,0 l/m 0,0 km/h (0 Bft) S 186 0 min 0,0 UV-I 0 W/m 14,0 C 15,8 C 1,8 km/h (1 Bft)
23.06.2024 02:31 15,8 C 88 % 1018,9 hPa 0,0 l/m 0,0 km/h (0 Bft) S 191 0 min 0,0 UV-I 0 W/m 13,8 C 15,8 C 0,0 km/h (0 Bft)
23.06.2024 02:29 15,8 C 89 % 1019,0 hPa 0,0 l/m 0,0 km/h (0 Bft) S 191 0 min 0,0 UV-I 0 W/m 14,0 C 15,8 C 1,8 km/h (1 Bft)
23.06.2024 02:27 15,8 C 89 % 1019,0 hPa 0,0 l/m 0,0 km/h (0 Bft) S 179 0 min 0,0 UV-I 0 W/m 14,0 C 15,8 C 3,6 km/h (1 Bft)
23.06.2024 02:25 15,8 C 88 % 1019,1 hPa 0,0 l/m 1,4 km/h (1 Bft) SW 233 0 min 0,0 UV-I 0 W/m 13,8 C 15,8 C 7,2 km/h (2 Bft)
23.06.2024 02:23 15,9 C 89 % 1019,0 hPa 0,0 l/m 0,7 km/h (0 Bft) S-SW 203 0 min 0,0 UV-I 0 W/m 14,1 C 15,9 C 1,8 km/h (1 Bft)
23.06.2024 02:21 15,9 C 88 % 1019,0 hPa 0,0 l/m 0,3 km/h (0 Bft) S-SW 203 0 min 0,0 UV-I 0 W/m 13,9 C 15,9 C 3,6 km/h (1 Bft)
23.06.2024 02:19 15,9 C 88 % 1018,8 hPa 0,0 l/m 0,3 km/h (0 Bft) S-SW 211 0 min 0,0 UV-I 0 W/m 13,9 C 15,9 C 3,6 km/h (1 Bft)
23.06.2024 02:17 15,9 C 88 % 1019,1 hPa 0,0 l/m 0,0 km/h (0 Bft) S-SW 203 0 min 0,0 UV-I 0 W/m 13,9 C 15,9 C 1,8 km/h (1 Bft)
23.06.2024 02:15 16,0 C 88 % 1019,0 hPa 0,0 l/m 0,0 km/h (0 Bft) S-SW 202 0 min 0,0 UV-I 0 W/m 14,0 C 16,0 C 1,8 km/h (1 Bft)
23.06.2024 02:13 16,0 C 88 % 1018,9 hPa 0,0 l/m 0,3 km/h (0 Bft) S-SW 202 0 min 0,0 UV-I 0 W/m 14,0 C 16,0 C 1,8 km/h (1 Bft)
23.06.2024 02:11 16,0 C 88 % 1018,9 hPa 0,0 l/m 0,7 km/h (0 Bft) S-SW 202 0 min 0,0 UV-I 0 W/m 14,0 C 16,0 C 1,8 km/h (1 Bft)
23.06.2024 02:09 16,0 C 88 % 1019,0 hPa 0,0 l/m 0,3 km/h (0 Bft) S-SW 204 0 min 0,0 UV-I 0 W/m 14,0 C 16,0 C 3,6 km/h (1 Bft)
23.06.2024 02:07 16,1 C 88 % 1019,0 hPa 0,0 l/m 0,0 km/h (0 Bft) S-SW 201 0 min 0,0 UV-I 0 W/m 14,1 C 16,1 C 0,0 km/h (0 Bft)
23.06.2024 02:05 16,1 C 88 % 1019,0 hPa 0,0 l/m 0,0 km/h (0 Bft) S-SW 200 0 min 0,0 UV-I 0 W/m 14,1 C 16,1 C 0,0 km/h (0 Bft)
23.06.2024 02:03 16,1 C 88 % 1019,1 hPa 0,0 l/m 0,0 km/h (0 Bft) S-SW 200 0 min 0,0 UV-I 0 W/m 14,1 C 16,1 C 0,0 km/h (0 Bft)
23.06.2024 02:01 16,1 C 87 % 1019,0 hPa 0,0 l/m 0,0 km/h (0 Bft) S-SW 201 0 min 0,0 UV-I 0 W/m 13,9 C 16,1 C 1,8 km/h (1 Bft)
23.06.2024 01:59 16,1 C 87 % 1019,0 hPa 0,0 l/m 0,0 km/h (0 Bft) S-SW 201 0 min 0,0 UV-I 0 W/m 13,9 C 16,1 C 0,0 km/h (0 Bft)
23.06.2024 01:57 16,1 C 87 % 1018,8 hPa 0,0 l/m 0,3 km/h (0 Bft) S-SW 201 0 min 0,0 UV-I 0 W/m 13,9 C 16,1 C 1,8 km/h (1 Bft)
23.06.2024 01:55 16,1 C 87 % 1018,7 hPa 0,0 l/m 0,0 km/h (0 Bft) S-SW 201 0 min 0,0 UV-I 0 W/m 13,9 C 16,1 C 1,8 km/h (1 Bft)
23.06.2024 01:53 16,1 C 87 % 1018,9 hPa 0,0 l/m 0,0 km/h (0 Bft) S-SO 168 0 min 0,0 UV-I 0 W/m 13,9 C 16,1 C 1,8 km/h (1 Bft)
23.06.2024 01:51 16,2 C 87 % 1018,9 hPa 0,0 l/m 0,0 km/h (0 Bft) S-SW 197 0 min 0,0 UV-I 0 W/m 14,0 C 16,2 C 0,0 km/h (0 Bft)
23.06.2024 01:49 16,2 C 87 % 1018,9 hPa 0,0 l/m 0,0 km/h (0 Bft) S-SW 197 0 min 0,0 UV-I 0 W/m 14,0 C 16,2 C 0,0 km/h (0 Bft)
23.06.2024 01:47 16,2 C 87 % 1019,1 hPa 0,0 l/m 0,0 km/h (0 Bft) S-SW 197 0 min 0,0 UV-I 0 W/m 14,0 C 16,2 C 1,8 km/h (1 Bft)
23.06.2024 01:45 16,2 C 87 % 1019,1 hPa 0,0 l/m 0,0 km/h (0 Bft) SW 218 0 min 0,0 UV-I 0 W/m 14,0 C 16,2 C 1,8 km/h (1 Bft)
23.06.2024 01:43 16,2 C 87 % 1019,1 hPa 0,0 l/m 0,0 km/h (0 Bft) S 190 0 min 0,0 UV-I 0 W/m 14,0 C 16,2 C 0,0 km/h (0 Bft)
23.06.2024 01:41 16,2 C 87 % 1019,0 hPa 0,0 l/m 0,0 km/h (0 Bft) S 190 0 min 0,0 UV-I 0 W/m 14,0 C 16,2 C 0,0 km/h (0 Bft)
23.06.2024 01:39 16,2 C 87 % 1019,1 hPa 0,0 l/m 1,4 km/h (1 Bft) S 191 0 min 0,0 UV-I 0 W/m 14,0 C 16,2 C 1,8 km/h (1 Bft)
23.06.2024 01:37 16,2 C 87 % 1019,1 hPa 0,0 l/m 0,0 km/h (0 Bft) S 189 0 min 0,0 UV-I 0 W/m 14,0 C 16,2 C 0,0 km/h (0 Bft)
23.06.2024 01:35 16,2 C 87 % 1019,1 hPa 0,0 l/m 0,0 km/h (0 Bft) S 189 0 min 0,0 UV-I 0 W/m 14,0 C 16,2 C 0,0 km/h (0 Bft)
23.06.2024 01:33 16,2 C 86 % 1019,0 hPa 0,0 l/m 0,0 km/h (0 Bft) S 189 0 min 0,0 UV-I 0 W/m 13,9 C 16,2 C 1,8 km/h (1 Bft)
23.06.2024 01:31 16,3 C 86 % 1018,9 hPa 0,0 l/m 1,1 km/h (1 Bft) S 188 0 min 0,0 UV-I 0 W/m 14,0 C 16,3 C 1,8 km/h (1 Bft)
23.06.2024 01:29 16,3 C 86 % 1018,9 hPa 0,0 l/m 1,8 km/h (1 Bft) S-SW 207 0 min 0,0 UV-I 0 W/m 14,0 C 16,3 C 1,8 km/h (1 Bft)
23.06.2024 01:27 16,3 C 86 % 1019,1 hPa 0,0 l/m 1,1 km/h (1 Bft) S 191 0 min 0,0 UV-I 0 W/m 14,0 C 16,3 C 1,8 km/h (1 Bft)
23.06.2024 01:25 16,3 C 86 % 1018,9 hPa 0,0 l/m 0,0 km/h (0 Bft) S 178 0 min 0,0 UV-I 0 W/m 14,0 C 16,3 C 1,8 km/h (1 Bft)
23.06.2024 01:23 16,3 C 86 % 1018,9 hPa 0,0 l/m 0,0 km/h (0 Bft) S-SW 200 0 min 0,0 UV-I 0 W/m 14,0 C 16,3 C 1,8 km/h (1 Bft)
23.06.2024 01:21 16,3 C 86 % 1018,8 hPa 0,0 l/m 1,4 km/h (1 Bft) S-SW 200 0 min 0,0 UV-I 0 W/m 14,0 C 16,3 C 3,6 km/h (1 Bft)
23.06.2024 01:19 16,4 C 86 % 1019,0 hPa 0,0 l/m 0,3 km/h (0 Bft) S-SW 213 0 min 0,0 UV-I 0 W/m 14,1 C 16,4 C 1,8 km/h (1 Bft)
23.06.2024 01:17 16,4 C 86 % 1018,9 hPa 0,0 l/m 0,0 km/h (0 Bft) S-SW 211 0 min 0,0 UV-I 0 W/m 14,1 C 16,4 C 0,0 km/h (0 Bft)
23.06.2024 01:15 16,4 C 86 % 1018,9 hPa 0,0 l/m 0,0 km/h (0 Bft) S-SW 211 0 min 0,0 UV-I 0 W/m 14,1 C 16,4 C 1,8 km/h (1 Bft)
23.06.2024 01:13 16,3 C 85 % 1018,9 hPa 0,0 l/m 1,4 km/h (1 Bft) S-SW 211 0 min 0,0 UV-I 0 W/m 13,8 C 16,3 C 1,8 km/h (1 Bft)
23.06.2024 01:11 16,3 C 85 % 1018,8 hPa 0,0 l/m 0,7 km/h (0 Bft) S-SW 210 0 min 0,0 UV-I 0 W/m 13,8 C 16,3 C 1,8 km/h (1 Bft)
23.06.2024 01:09 16,4 C 85 % 1019,1 hPa 0,0 l/m 0,0 km/h (0 Bft) S-SW 211 0 min 0,0 UV-I 0 W/m 13,9 C 16,4 C 3,6 km/h (1 Bft)
23.06.2024 01:07 16,4 C 86 % 1018,8 hPa 0,0 l/m 0,0 km/h (0 Bft) S 184 0 min 0,0 UV-I 0 W/m 14,1 C 16,4 C 1,8 km/h (1 Bft)
23.06.2024 01:05 16,4 C 86 % 1018,8 hPa 0,0 l/m 0,0 km/h (0 Bft) S-SO 168 0 min 0,0 UV-I 0 W/m 14,1 C 16,4 C 1,8 km/h (1 Bft)
23.06.2024 01:03 16,4 C 85 % 1018,9 hPa 0,0 l/m 0,0 km/h (0 Bft) S 176 0 min 0,0 UV-I 0 W/m 13,9 C 16,4 C 3,6 km/h (1 Bft)
23.06.2024 01:01 16,5 C 86 % 1019,0 hPa 0,0 l/m 0,0 km/h (0 Bft) S 178 0 min 0,0 UV-I 0 W/m 14,1 C 16,5 C 0,0 km/h (0 Bft)
23.06.2024 00:59 16,5 C 85 % 1018,9 hPa 0,0 l/m 0,0 km/h (0 Bft) S 174 0 min 0,0 UV-I 0 W/m 14,0 C 16,5 C 1,8 km/h (1 Bft)
23.06.2024 00:57 16,5 C 85 % 1018,8 hPa 0,0 l/m 0,0 km/h (0 Bft) S 187 0 min 0,0 UV-I 0 W/m 14,0 C 16,5 C 1,8 km/h (1 Bft)
23.06.2024 00:54 16,5 C 86 % 1018,9 hPa 0,0 l/m 0,0 km/h (0 Bft) S 185 0 min 0,0 UV-I 0 W/m 14,1 C 16,5 C 3,6 km/h (1 Bft)
23.06.2024 00:52 16,5 C 86 % 1018,9 hPa 0,0 l/m 0,0 km/h (0 Bft) N-NO 32 0 min 0,0 UV-I 0 W/m 14,1 C 16,5 C 0,0 km/h (0 Bft)
23.06.2024 00:50 16,5 C 86 % 1018,8 hPa 0,0 l/m 0,0 km/h (0 Bft) N-NO 32 0 min 0,0 UV-I 0 W/m 14,1 C 16,5 C 0,0 km/h (0 Bft)
23.06.2024 00:48 16,5 C 85 % 1019,1 hPa 0,0 l/m 0,0 km/h (0 Bft) N-NO 32 0 min 0,0 UV-I 0 W/m 14,0 C 16,5 C 0,0 km/h (0 Bft)
23.06.2024 00:46 16,6 C 85 % 1018,9 hPa 0,0 l/m 0,0 km/h (0 Bft) N-NO 32 0 min 0,0 UV-I 0 W/m 14,1 C 16,6 C 0,0 km/h (0 Bft)
23.06.2024 00:44 16,6 C 85 % 1018,9 hPa 0,0 l/m 0,0 km/h (0 Bft) N-NO 32 0 min 0,0 UV-I 0 W/m 14,1 C 16,6 C 0,0 km/h (0 Bft)
23.06.2024 00:42 16,6 C 85 % 1019,0 hPa 0,0 l/m 0,0 km/h (0 Bft) N-NO 32 0 min 0,0 UV-I 0 W/m 14,1 C 16,6 C 0,0 km/h (0 Bft)
23.06.2024 00:40 16,6 C 85 % 1018,8 hPa 0,0 l/m 0,0 km/h (0 Bft) N-NO 32 0 min 0,0 UV-I 0 W/m 14,1 C 16,6 C 0,0 km/h (0 Bft)
23.06.2024 00:38 16,6 C 85 % 1018,9 hPa 0,0 l/m 0,0 km/h (0 Bft) N-NO 32 0 min 0,0 UV-I 0 W/m 14,1 C 16,6 C 0,0 km/h (0 Bft)
23.06.2024 00:36 16,5 C 85 % 1018,7 hPa 0,0 l/m 0,0 km/h (0 Bft) N-NO 32 0 min 0,0 UV-I 0 W/m 14,0 C 16,5 C 0,0 km/h (0 Bft)
23.06.2024 00:34 16,5 C 85 % 1018,9 hPa 0,0 l/m 0,0 km/h (0 Bft) N-NO 32 0 min 0,0 UV-I 0 W/m 14,0 C 16,5 C 0,0 km/h (0 Bft)
23.06.2024 00:32 16,5 C 85 % 1018,6 hPa 0,0 l/m 0,0 km/h (0 Bft) N-NO 32 0 min 0,0 UV-I 0 W/m 14,0 C 16,5 C 0,0 km/h (0 Bft)
23.06.2024 00:30 16,5 C 85 % 1018,6 hPa 0,0 l/m 0,0 km/h (0 Bft) N-NO 32 0 min 0,0 UV-I 0 W/m 14,0 C 16,5 C 0,0 km/h (0 Bft)
23.06.2024 00:28 16,5 C 85 % 1018,9 hPa 0,0 l/m 0,0 km/h (0 Bft) N-NO 32 0 min 0,0 UV-I 0 W/m 14,0 C 16,5 C 0,0 km/h (0 Bft)
23.06.2024 00:26 16,5 C 85 % 1018,8 hPa 0,0 l/m 0,0 km/h (0 Bft) N-NO 32 0 min 0,0 UV-I 0 W/m 14,0 C 16,5 C 1,8 km/h (1 Bft)
23.06.2024 00:24 16,5 C 85 % 1018,7 hPa 0,0 l/m 0,0 km/h (0 Bft) N-NO 32 0 min 0,0 UV-I 0 W/m 14,0 C 16,5 C 0,0 km/h (0 Bft)
23.06.2024 00:22 16,5 C 85 % 1018,7 hPa 0,0 l/m 0,0 km/h (0 Bft) N-NO 32 0 min 0,0 UV-I 0 W/m 14,0 C 16,5 C 0,0 km/h (0 Bft)
23.06.2024 00:20 16,5 C 85 % 1018,8 hPa 0,0 l/m 0,0 km/h (0 Bft) N-NO 32 0 min 0,0 UV-I 0 W/m 14,0 C 16,5 C 0,0 km/h (0 Bft)
23.06.2024 00:18 16,6 C 85 % 1018,7 hPa 0,0 l/m 0,0 km/h (0 Bft) N-NO 32 0 min 0,0 UV-I 0 W/m 14,1 C 16,6 C 0,0 km/h (0 Bft)
23.06.2024 00:16 16,6 C 85 % 1018,7 hPa 0,0 l/m 0,0 km/h (0 Bft) N-NO 32 0 min 0,0 UV-I 0 W/m 14,1 C 16,6 C 0,0 km/h (0 Bft)
23.06.2024 00:14 16,6 C 84 % 1018,4 hPa 0,0 l/m 0,0 km/h (0 Bft) N-NO 32 0 min 0,0 UV-I 0 W/m 13,9 C 16,6 C 0,0 km/h (0 Bft)
23.06.2024 00:12 16,6 C 84 % 1018,5 hPa 0,0 l/m 0,0 km/h (0 Bft) N-NO 32 0 min 0,0 UV-I 0 W/m 13,9 C 16,6 C 1,8 km/h (1 Bft)
23.06.2024 00:10 16,6 C 84 % 1018,6 hPa 0,0 l/m 1,4 km/h (1 Bft) N-NO 32 0 min 0,0 UV-I 0 W/m 13,9 C 16,6 C 1,8 km/h (1 Bft)
23.06.2024 00:08 16,6 C 84 % 1018,5 hPa 0,0 l/m 0,0 km/h (0 Bft) N-NO 32 0 min 0,0 UV-I 0 W/m 13,9 C 16,6 C 1,8 km/h (1 Bft)
23.06.2024 00:06 16,6 C 84 % 1018,4 hPa 0,0 l/m 0,0 km/h (0 Bft) N-NO 32 0 min 0,0 UV-I 0 W/m 13,9 C 16,6 C 1,8 km/h (1 Bft)
23.06.2024 00:04 16,5 C 84 % 1018,5 hPa 0,0 l/m 0,0 km/h (0 Bft) N-NO 32 0 min 0,0 UV-I 0 W/m 13,8 C 16,5 C 0,0 km/h (0 Bft)
23.06.2024 00:02 16,5 C 84 % 1018,6 hPa 0,0 l/m 0,0 km/h (0 Bft) N-NO 32 0 min 0,0 UV-I 0 W/m 13,8 C 16,5 C 0,0 km/h (0 Bft)
23.06.2024 00:00 16,6 C 84 % 1018,6 hPa 0,0 l/m 0,0 km/h (0 Bft) N-NO 32 0 min 0,0 UV-I 0 W/m 13,9 C 16,6 C 0,0 km/h (0 Bft)
_ Min-Zeit 04:48 00:00 00:06 - 00:00 - - - - - 04:48 04:48 00:00
Minimum _ 15,2 C 84 % 1018,4 hPa - 0,0 km/h (0 Bft) - - - - - 13,7 C 15,2 C 0,0 km/h (0 Bft)
_ Max-Zeit 00:00 03:58 05:33 00:00 05:05 - - 00:00 00:00 05:39 00:50 00:00 02:25
Maximum _ 16,6 C 91 % 1019,5 hPa 0,0 l/m 2,2 km/h
SW (1 Bft)
- - 0 min 0,0 UV-I 9 W/m 14,1 C 16,6 C 7,2 km/h
SW (2 Bft)
Durchschnitt _ 15,8 C 88 % 1019,0 hPa #0,0 l/m 0,2 km/h (0 Bft) S - #0 min. 0,0 UV-I 4 W/m 13,9 C 15,8 C 1,0 km/h (0 Bft)